Location: Gälforsberget
(66.6500°N, 22.4167°E)
Time: 20:25:55
(UTC+00:00)

Tsikada Rocket - Pass Details

Date: 11 April 2026
Orbit: 956 x 1009 km, 82.9° (Epoch: 16 May)

Event Time Altitude Azimuth Distance (km) Brightness Sun altitude
Rises 22:31:38 0° 342° (NNW) 3,747 8.6 -14.8°
Reaches altitude 10° 22:34:12 10° 342° (NNW) 2,789 7.6 -14.8°
Maximum altitude 22:40:36 80° 258° (WSW) 1,016 4.0 -14.7°
Enters shadow 22:45:06 21° 173° (S) 2,085 5.1 -14.7°
